Ponca City, OK

3:31 PM CDT on May 24, 2018 (GMT -0500)
Ponca City Municipal

Weather History for KPNC - August, 2013

Change the Weather History Date:

Friday, August 9, 2013

  Actual Average Record
Temperature  
Mean Temperature 72 °F -  
Max Temperature 78 °F 98 °F 108 °F (1970)
Min Temperature 66 °F 69 °F 62 °F (1958)
Cooling Degree Days 6    
Growing Degree Days 22 (Base 50)    
Moisture  
Dew Point 69 °F    
Average Humidity 85    
Maximum Humidity 94    
Minimum Humidity 68    
Precipitation  
Precipitation 0.39 in - - ()
Sea Level Pressure  
Sea Level Pressure 29.98 in    
Wind  
Wind Speed 8 mph (NE)    
Max Wind Speed 15 mph    
Max Gust Speed 17 mph    
Visibility 9 miles    
Events Rain , Thunderstorm    
Averages and records for this station are not official NWS values.
T = Trace of Precipitation, MM = Missing Value Source: NWS Daily Summary

Daily Weather History Graph

Daily Weather History Graph

Search for Another Location

Airport or City:

Astronomy

Aug. 09, 2013 Rise Set
Actual Time 6:40 AM CDT 8:26 PM CDT
Civil Twilight 6:13 AM CDT 8:54 PM CDT
Nautical Twilight 5:39 AM CDT 9:27 PM CDT
Astronomical Twilight 5:03 AM CDT 10:03 PM CDT
Moon 9:22 AM CDT (8/9) 9:43 PM CDT (8/9)
Length of Visible Light 14h 41m
Length of Day
13h 45m
Waxing Crescent, 8% of the Moon is Illuminated
Aug 9
Waxing Crescent
Aug 14
First Quarter
Aug 20
Full
Aug 28
Last Quarter
Sep 5
New

Hourly Weather History & Observations

Time (CDT) Temp. Dew Point Humidity Pressure Visibility Wind Dir Wind Speed Gust Speed Precip Events Conditions
12:53 AM 75.0 °F 71.1 °F 87% 29.89 in 10.0 mi ENE 10.4 mph - N/A   Partly Cloudy
1:22 AM 75.2 °F 71.6 °F 89% 29.94 in 10.0 mi East 13.8 mph - N/A   Mostly Cloudy
1:29 AM 75.2 °F 71.6 °F 89% 29.95 in 10.0 mi East 9.2 mph 17.3 mph N/A Thunderstorm Mostly Cloudy
1:53 AM 75.0 °F 72.0 °F 90% 29.93 in 10.0 mi East 9.2 mph - 0.00 in Rain , Thunderstorm Light Rain
2:30 AM 75.2 °F 71.6 °F 89% 29.94 in 6.0 mi ESE 9.2 mph - 0.06 in Rain , Thunderstorm Rain
2:38 AM 75.2 °F 73.4 °F 94% 29.94 in 6.0 mi ESE 9.2 mph - 0.09 in Rain , Thunderstorm Thunderstorms and Rain
2:53 AM 75.0 °F 72.0 °F 90% 29.90 in 6.0 mi East 6.9 mph - 0.14 in Rain , Thunderstorm Thunderstorms and Rain
3:02 AM 75.2 °F 71.6 °F 89% 29.94 in 7.0 mi East 11.5 mph - 0.02 in Rain , Thunderstorm Light Rain
3:44 AM 75.2 °F 73.4 °F 94% 29.94 in 8.0 mi Calm Calm - 0.12 in Rain Light Rain
3:53 AM 75.0 °F 73.0 °F 94% 29.90 in 7.0 mi Calm Calm - 0.13 in Rain Light Rain
4:34 AM 73.4 °F 71.6 °F 94% 29.94 in 10.0 mi Calm Calm - 0.02 in Rain Light Rain
4:53 AM 73.0 °F 70.0 °F 90% 29.89 in 10.0 mi Calm Calm - 0.02 in Rain Light Rain
5:53 AM 73.0 °F 71.1 °F 93% 29.91 in 10.0 mi Calm Calm - 0.01 in   Mostly Cloudy
6:53 AM 73.0 °F 70.0 °F 90% 29.90 in 10.0 mi Calm Calm - N/A   Clear
7:53 AM 73.0 °F 70.0 °F 90% 29.90 in 10.0 mi SE 3.5 mph - 0.00 in Rain Light Rain
8:53 AM 73.9 °F 70.0 °F 87% 29.94 in 10.0 mi Calm Calm - 0.00 in   Mostly Cloudy
9:03 AM 73.4 °F 69.8 °F 88% 29.97 in 10.0 mi Calm Calm - N/A   Mostly Cloudy
9:53 AM 73.9 °F 70.0 °F 87% 29.96 in 10.0 mi Calm Calm - N/A   Overcast
10:53 AM 75.0 °F 69.1 °F 82% 29.97 in 10.0 mi Calm Calm - N/A   Overcast
11:53 AM 75.9 °F 69.1 °F 79% 29.98 in 10.0 mi Calm Calm - N/A   Overcast
12:17 PM 77.0 °F 71.6 °F 83% 30.01 in 10.0 mi NNE 10.4 mph - N/A   Overcast
12:24 PM 75.2 °F 71.6 °F 89% 30.01 in 10.0 mi NNE 10.4 mph - 0.01 in   Overcast
12:45 PM 75.2 °F 66.2 °F 73% 30.02 in 10.0 mi NNE 10.4 mph - 0.01 in   Overcast
12:53 PM 73.9 °F 68.0 °F 82% 29.99 in 6.0 mi North 11.5 mph - 0.02 in Rain Light Rain
1:10 PM 71.6 °F 69.8 °F 94% 30.02 in 3.0 mi North 8.1 mph - 0.05 in Rain Heavy Rain
1:53 PM 73.0 °F 69.1 °F 87% 30.01 in 10.0 mi North 15.0 mph - 0.07 in   Overcast
2:00 PM 73.4 °F 69.8 °F 88% 30.04 in 10.0 mi North 13.8 mph - N/A   Overcast
2:53 PM 75.9 °F 69.1 °F 79% 29.99 in 10.0 mi NNE 12.7 mph - N/A   Scattered Clouds
3:53 PM 77.0 °F 69.1 °F 76% 29.99 in 10.0 mi NNE 12.7 mph - N/A   Partly Cloudy
4:40 PM 75.2 °F 68.0 °F 78% 30.03 in 10.0 mi NE 11.5 mph - N/A   Mostly Cloudy
4:53 PM 75.9 °F 68.0 °F 76% 30.00 in 10.0 mi NNE 10.4 mph - N/A   Mostly Cloudy
5:25 PM 75.2 °F 68.0 °F 78% 30.02 in 10.0 mi NNE 11.5 mph - N/A   Overcast
5:53 PM 75.0 °F 68.0 °F 79% 29.99 in 10.0 mi NE 13.8 mph - N/A   Overcast
6:53 PM 75.0 °F 66.9 °F 76% 30.00 in 10.0 mi NE 11.5 mph - N/A   Overcast
7:18 PM 75.2 °F 66.2 °F 73% 30.03 in 10.0 mi NE 11.5 mph - N/A   Scattered Clouds
7:53 PM 73.9 °F 63.0 °F 68% 30.01 in 10.0 mi ENE 11.5 mph - N/A   Clear
8:53 PM 71.1 °F 63.0 °F 75% 30.03 in 10.0 mi NE 4.6 mph - N/A   Clear
9:53 PM 68.0 °F 63.0 °F 84% 30.05 in 10.0 mi Calm Calm - N/A   Clear
10:53 PM 66.9 °F 63.0 °F 87% 30.07 in 10.0 mi North 6.9 mph - N/A   Clear
11:53 PM 66.0 °F 63.0 °F 90% 30.09 in 10.0 mi North 5.8 mph - N/A   Clear